AV194 Weather Reports


Display with metric or nautical units.
time (UTC)temp
F
wind
direction
speed
MPH
gust
MPH
rain 1hr
in
rain 24hr
in
rain mn
in
humidity
%
barometer
mb
20260902090037 62 101 0.0 1.0 0.00 0.47 0.01 97 1020.1
20260902085530 62 101 0.0 1.0 0.00 0.47 0.01 97 1020.1
20260902085030 62 96 0.0 1.0 0.00 0.47 0.01 97 1020.2
20260902084537 62 107 0.0 1.0 0.00 0.47 0.01 97 1020.2
20260902084032 62 107 0.0 1.0 0.00 0.47 0.01 97 1020.0
20260902083533 63 107 0.0 2.0 0.00 0.47 0.01 97 1019.9
20260902083029 62 107 0.0 2.0 0.00 0.47 0.01 97 1019.9
20260902082531 62 88 0.0 2.0 0.00 0.47 0.01 97 1019.9
20260902082029 62 39 0.0 2.0 0.00 0.47 0.01 97 1020.0
20260902081528 63 70 0.0 0.0 0.00 0.47 0.01 97 1019.9
20260902081028 62 70 0.0 0.0 0.00 0.47 0.01 97 1020.1
20260902080528 62 70 0.0 0.0 0.00 0.47 0.01 97 1020.1
20260902080029 62 70 0.0 0.0 0.00 0.47 0.01 97 1020.1
20260902075528 62 70 0.0 1.0 0.00 0.47 0.01 97 1020.1
20260902075028 63 72 0.0 2.0 0.00 0.47 0.01 97 1020.3
20260902074528 63 78 0.0 2.0 0.00 0.47 0.01 97 1020.2
20260902074028 63 48 0.0 2.0 0.00 0.47 0.01 97 1020.3
20260902073527 63 48 0.0 2.0 0.00 0.47 0.01 97 1020.3
20260902073028 62 24 0.0 1.0 0.00 0.47 0.01 97 1020.4
20260902072526 62 24 0.0 1.0 0.00 0.47 0.01 97 1020.4
20260902072026 62 17 0.0 1.0 0.01 0.47 0.01 97 1020.4
20260902071526 62 17 0.0 1.0 0.01 0.47 0.01 97 1020.4
20260902071025 62 17 0.0 0.0 0.01 0.47 0.01 97 1020.3
20260902070523 62 5 0.0 0.0 0.01 0.47 0.01 97 1020.1
20260902070025 62 5 0.0 0.0 0.01 0.47 0.01 97 1020.0
20260902065524 62 5 0.0 0.0 0.01 0.47 0.01 97 1020.1
20260902065027 62 5 0.0 0.0 0.01 0.47 0.01 97 1020.0
20260902064524 62 5 0.0 0.0 0.01 0.47 0.01 97 1020.0
20260902064022 62 5 0.0 0.0 0.01 0.47 0.01 97 1020.0
20260902063522 62 5 0.0 0.0 0.01 0.47 0.01 97 1020.0
20260902063043 62 5 0.0 0.0 0.01 0.47 0.01 97 1020.1
20260902062527 62 5 0.0 0.0 0.01 0.47 0.01 97 1020.1
20260902062022 62 5 0.0 0.0 0.00 0.46 0.00 97 1020.0
20260902061526 62 5 0.0 0.0 0.00 0.46 0.00 97 1020.1
20260902061022 62 21 0.0 1.0 0.00 0.46 0.00 97 1020.0
20260902060522 62 21 0.0 1.0 0.00 0.46 0.00 97 1020.0
20260902060029 62 55 0.0 2.0 0.00 0.46 0.00 97 1020.0
20260902055521 62 273 0.0 1.0 0.00 0.46 0.00 97 1020.0
20260902055020 62 273 0.0 0.0 0.00 0.46 0.00 97 1020.0
20260902054523 62 273 0.0 0.0 0.00 0.46 0.00 97 1020.0
20260902054019 62 273 0.0 0.0 0.00 0.46 0.00 97 1019.9
20260902053522 62 273 0.0 0.0 0.00 0.46 0.00 97 1019.9
20260902053018 62 273 0.0 0.0 0.00 0.46 0.00 97 1019.9
20260902052519 62 273 0.0 0.0 0.00 0.46 0.00 97 1019.9
20260902052017 62 273 0.0 0.0 0.00 0.46 0.00 97 1019.9
20260902051517 62 273 0.0 0.0 0.00 0.46 0.00 96 1019.7
20260902051017 62 273 0.0 0.0 0.00 0.46 0.00 96 1019.8
20260902050516 62 273 0.0 0.0 0.00 0.46 0.00 96 1019.7
20260902050021 62 273 0.0 0.0 0.00 0.46 0.00 97 1019.6
20260902045515 62 273 0.0 0.0 0.00 0.46 0.00 96 1019.6
20260902045014 62 273 0.0 0.0 0.00 0.46 0.00 97 1019.4
20260902044517 62 273 0.0 0.0 0.00 0.46 0.00 97 1019.3
20260902044013 62 273 0.0 0.0 0.00 0.46 0.00 97 1019.3
20260902043512 62 273 0.0 0.0 0.00 0.46 0.00 97 1019.1
20260902043011 62 273 0.0 0.0 0.00 0.46 0.00 97 1019.1
20260902042511 62 273 0.0 0.0 0.00 0.46 0.00 97 1019.1
20260902042014 62 273 0.0 0.0 0.00 0.46 0.00 97 1019.1
20260902041510 62 273 0.0 0.0 0.00 0.46 0.00 97 1019.0
20260902041013 62 273 0.0 0.0 0.00 0.46 0.00 97 1019.0
20260902040508 62 273 0.0 0.0 0.00 0.46 0.00 97 1018.9
20260902040007 62 273 0.0 0.0 0.00 0.46 0.46 96 1018.7
20260902035506 62 273 0.0 0.0 0.00 0.46 0.46 96 1018.7
20260902035007 62 273 0.0 0.0 0.00 0.46 0.46 96 1018.6
20260902034607 62 273 0.0 0.0 0.00 0.46 0.46 96 1018.5
20260902034005 62 273 0.0 0.0 0.00 0.46 0.46 96 1018.4
20260902033506 62 273 0.0 0.0 0.00 0.46 0.46 96 1018.4
20260902033006 62 273 0.0 0.0 0.00 0.46 0.46 96 1018.4
20260902032606 62 273 0.0 0.0 0.00 0.46 0.46 96 1018.3
20260902032005 62 273 0.0 0.0 0.00 0.46 0.46 96 1018.3
20260902031522 62 273 0.0 0.0 0.00 0.46 0.46 96 1018.4
20260902031005 62 273 0.0 0.0 0.00 0.46 0.46 96 1018.5
20260902030510 62 273 0.0 0.0 0.00 0.46 0.46 96 1018.5
20260902030004 62 273 0.0 0.0 0.00 0.46 0.46 96 1018.7
20260902025504 62 273 0.0 0.0 0.00 0.46 0.46 96 1018.6
20260902025004 62 273 0.0 0.0 0.00 0.46 0.46 96 1018.6
20260902024504 62 273 0.0 0.0 0.00 0.46 0.46 96 1018.6
20260902024007 62 273 0.0 0.0 0.00 0.46 0.46 96 1018.5
20260902023503 62 273 0.0 0.0 0.00 0.46 0.46 96 1018.5
20260902023013 63 273 0.0 0.0 0.00 0.46 0.46 96 1018.6
20260902022503 63 273 0.0 0.0 0.00 0.46 0.46 96 1018.5
20260902022005 63 273 0.0 0.0 0.00 0.46 0.46 96 1018.6
20260902021505 62 273 0.0 0.0 0.00 0.46 0.46 96 1018.6
20260902021002 62 273 0.0 0.0 0.00 0.46 0.46 96 1018.7
20260902020503 62 273 0.0 0.0 0.00 0.46 0.46 96 1018.8
20260902020001 62 273 0.0 0.0 0.00 0.46 0.46 96 1018.8
20260902015501 62 273 0.0 0.0 0.00 0.46 0.46 96 1018.6
20260902015100 62 273 0.0 0.0 0.00 0.46 0.46 96 1018.6
20260902014600 62 273 0.0 0.0 0.00 0.46 0.46 96 1018.6
20260902014059 62 273 0.0 0.0 0.00 0.46 0.46 96 1018.5
20260902013559 63 273 0.0 0.0 0.00 0.46 0.46 96 1018.5
20260902013110 63 273 0.0 0.0 0.00 0.46 0.46 96 1018.5
20260902012600 63 273 0.0 0.0 0.00 0.46 0.46 96 1018.5
20260902012059 63 273 0.0 0.0 0.00 0.46 0.46 96 1018.5
20260902011700 62 273 0.0 0.0 0.00 0.46 0.46 96 1018.5
20260902011059 63 273 0.0 0.0 0.00 0.46 0.46 96 1018.5
20260902010558 63 273 0.0 0.0 0.00 0.46 0.46 96 1018.4
20260902010104 62 273 0.0 0.0 0.00 0.46 0.46 96 1018.5
20260902005559 63 273 0.0 0.0 0.00 0.46 0.46 96 1018.6
20260902005058 63 273 0.0 0.0 0.00 0.46 0.46 96 1018.5
20260902004557 63 273 0.0 0.0 0.00 0.46 0.46 96 1018.5
20260902004056 63 273 0.0 0.0 0.00 0.46 0.46 96 1018.4
20260902003555 63 273 0.0 0.0 0.00 0.46 0.46 96 1018.3
20260902003055 63 273 0.0 0.0 0.00 0.46 0.46 96 1018.2
20260902002555 63 273 0.0 0.0 0.00 0.46 0.46 96 1018.2
20260902002055 63 273 0.0 0.0 0.00 0.46 0.46 96 1018.1
20260902001555 63 273 0.0 0.0 0.00 0.46 0.46 96 1018.1
20260902001053 63 273 0.0 0.0 0.00 0.46 0.46 96 1017.9
20260902000554 63 273 0.0 0.0 0.00 0.46 0.46 96 1017.8
20260902000054 63 273 0.0 0.0 0.00 0.46 0.46 96 1017.9
20260901235554 63 273 0.0 0.0 0.00 0.46 0.46 96 1017.8
20260901235052 63 273 0.0 0.0 0.00 0.46 0.46 95 1017.9
20260901234602 63 273 0.0 0.0 0.00 0.46 0.46 95 1017.7
20260901234055 63 273 0.0 0.0 0.00 0.46 0.46 95 1017.7
20260901233553 63 273 0.0 0.0 0.00 0.46 0.46 95 1017.8
20260901233052 63 273 0.0 0.0 0.00 0.46 0.46 95 1017.9
20260901232552 63 273 0.0 1.0 0.00 0.46 0.46 95 1018.1
20260901232055 63 273 0.0 1.0 0.00 0.46 0.46 95 1018.1
20260901231557 63 273 0.0 1.0 0.00 0.46 0.46 95 1018.2
20260901231050 63 273 0.0 1.0 0.00 0.46 0.46 95 1018.1
20260901230551 63 273 0.0 1.0 0.00 0.46 0.46 95 1018.0
20260901230103 64 273 0.0 2.0 0.00 0.46 0.46 95 1017.9
20260901225549 64 333 0.0 2.0 0.00 0.46 0.46 95 1017.8
20260901225049 64 252 0.0 2.0 0.00 0.46 0.46 95 1017.8
20260901224550 64 319 0.0 1.0 0.00 0.46 0.46 95 1017.8
20260901224051 64 343 0.0 1.0 0.00 0.46 0.46 95 1017.9
20260901223552 64 33 0.0 2.0 0.00 0.46 0.46 95 1017.8
20260901223048 64 33 0.0 2.0 0.00 0.46 0.46 95 1017.8
20260901222547 64 74 0.0 1.0 0.00 0.46 0.46 95 1017.8
20260901222047 64 74 0.0 1.0 0.00 0.46 0.46 95 1017.7
20260901221559 64 57 0.0 1.0 0.00 0.46 0.46 95 1017.7
20260901221046 65 59 0.0 2.0 0.00 0.46 0.46 95 1017.7
20260901220548 65 59 0.0 2.0 0.00 0.46 0.46 95 1017.6
20260901220045 65 49 0.0 2.0 0.00 0.46 0.46 95 1017.6
20260901215545 65 57 0.0 0.0 0.00 0.46 0.46 95 1017.6
20260901215045 65 57 0.0 0.0 0.00 0.46 0.46 95 1017.5
20260901214544 65 57 0.0 0.0 0.00 0.46 0.46 95 1017.4
20260901214044 65 57 0.0 1.0 0.00 0.46 0.46 95 1017.3
20260901213545 65 57 0.0 1.0 0.00 0.46 0.46 95 1017.3
20260901213046 65 65 0.0 0.0 0.00 0.46 0.46 95 1017.3
20260901212543 65 65 0.0 1.0 0.00 0.46 0.46 95 1017.3
20260901212043 65 65 0.0 1.0 0.00 0.46 0.46 95 1017.3
20260901211543 65 65 0.0 0.0 0.00 0.46 0.46 95 1017.3
20260901211042 65 65 0.0 0.0 0.00 0.46 0.46 95 1017.3
20260901210547 65 65 0.0 1.0 0.00 0.46 0.46 95 1017.3
20260901210043 65 65 0.0 1.0 0.00 0.46 0.46 95 1017.2
20260901205543 65 61 0.0 2.0 0.00 0.46 0.46 95 1017.1
20260901205043 65 61 0.0 5.0 0.00 0.46 0.46 95 1016.9
20260901204543 65 134 1.0 5.0 0.00 0.46 0.46 95 1016.9
20260901204044 65 32 0.0 1.0 0.00 0.46 0.46 95 1017.0
20260901203543 65 23 0.0 1.0 0.00 0.46 0.46 95 1017.0
20260901203045 65 23 0.0 1.0 0.00 0.46 0.46 96 1016.9
20260901202641 65 23 0.0 1.0 0.00 0.46 0.46 95 1016.9
20260901202041 65 360 0.0 2.0 0.01 0.46 0.46 95 1016.9
20260901201546 65 360 0.0 3.0 0.01 0.46 0.46 95 1016.8
20260901201040 66 46 0.0 2.0 0.01 0.46 0.46 95 1016.8
20260901200541 65 49 0.0 5.0 0.01 0.46 0.46 95 1016.8
20260901200040 66 49 0.0 6.0 0.02 0.46 0.46 95 1016.9
20260901195540 66 46 1.0 6.0 0.02 0.46 0.46 95 1016.9
20260901195040 66 123 2.0 6.0 0.02 0.46 0.46 95 1016.9
20260901194540 66 76 1.0 4.0 0.02 0.46 0.46 95 1016.9
20260901194038 66 76 0.0 4.0 0.02 0.46 0.46 95 1016.9
20260901193538 66 95 1.0 4.0 0.02 0.46 0.46 95 1016.8
20260901193038 66 120 0.0 6.0 0.02 0.46 0.46 95 1016.9
20260901192537 66 100 2.0 6.0 0.02 0.46 0.46 95 1016.9
20260901192039 66 94 1.0 5.0 0.01 0.45 0.45 96 1016.9
20260901191542 66 58 0.0 2.0 0.01 0.45 0.45 96 1016.9
20260901191038 65 85 0.0 2.0 0.01 0.45 0.45 96 1016.9
20260901190537 65 80 0.0 2.0 0.01 0.45 0.45 96 1016.9
20260901190039 65 103 0.0 4.0 0.00 0.44 0.44 96 1017.0
20260901185536 65 51 0.0 2.0 0.00 0.44 0.44 96 1017.0
20260901185035 65 9 0.0 2.0 0.00 0.44 0.44 96 1017.0
20260901184535 65 81 0.0 4.0 0.00 0.44 0.44 96 1017.0
20260901184034 65 154 0.0 4.0 0.00 0.44 0.44 96 1016.9
20260901183537 65 60 0.0 4.0 0.00 0.44 0.44 96 1016.9
20260901183056 65 90 0.0 1.0 0.00 0.44 0.44 96 1017.0
20260901182533 65 95 0.0 4.0 0.00 0.44 0.44 96 1017.1
20260901182032 65 104 0.0 3.0 0.00 0.44 0.44 96 1017.1
20260901181532 65 88 0.0 2.0 0.00 0.44 0.44 96 1017.1
20260901181032 64 95 0.0 2.0 0.00 0.44 0.44 96 1017.1
20260901180532 64 114 1.0 2.0 0.01 0.44 0.44 96 1017.0
20260901180033 64 81 0.0 2.0 0.01 0.44 0.44 96 1017.0
20260901175533 64 44 0.0 2.0 0.01 0.44 0.44 96 1017.0
20260901175032 64 94 0.0 2.0 0.01 0.44 0.44 96 1016.9
20260901174532 64 19 1.0 4.0 0.01 0.44 0.44 96 1016.8
20260901174031 64 56 0.0 4.0 0.01 0.44 0.44 96 1016.6
20260901173631 64 69 0.0 2.0 0.01 0.44 0.44 96 1016.4
20260901173030 64 63 0.0 2.0 0.02 0.44 0.44 96 1016.5
20260901172530 64 98 0.0 4.0 0.02 0.44 0.44 96 1016.5
20260901172030 64 9 1.0 5.0 0.02 0.44 0.44 96 1016.5
20260901171545 63 94 1.0 5.0 0.02 0.44 0.44 96 1016.6
20260901171034 63 78 0.0 4.0 0.02 0.44 0.44 96 1016.8
20260901170529 63 107 1.0 4.0 0.01 0.43 0.43 96 1016.6
20260901170041 63 20 0.0 4.0 0.01 0.43 0.43 96 1016.8
20260901165527 63 87 0.0 4.0 0.01 0.43 0.43 96 1016.8
20260901165027 63 52 0.0 4.0 0.01 0.43 0.43 96 1016.8
20260901164528 63 116 0.0 4.0 0.01 0.43 0.43 96 1016.8
20260901164026 63 106 0.0 4.0 0.01 0.43 0.43 96 1016.9
20260901163525 62 17 0.0 2.0 0.01 0.43 0.43 96 1016.9
20260901163030 62 9 0.0 4.0 0.00 0.42 0.42 96 1016.9
20260901162526 62 84 0.0 4.0 0.00 0.42 0.42 96 1017.0
20260901162029 62 62 0.0 4.0 0.00 0.42 0.42 96 1016.9
20260901161528 62 92 0.0 4.0 0.00 0.42 0.42 96 1017.1
20260901161025 62 36 1.0 4.0 0.00 0.42 0.42 96 1017.1
20260901160524 62 67 0.0 4.0 0.00 0.42 0.42 96 1017.1
20260901160025 62 92 1.0 4.0 0.00 0.42 0.42 96 1017.1
20260901155525 62 60 1.0 4.0 0.00 0.42 0.42 96 1017.1
20260901155025 62 58 0.0 2.0 0.00 0.42 0.42 96 1017.0
20260901154525 62 112 0.0 2.0 0.00 0.42 0.42 96 1017.0
20260901154025 62 112 0.0 4.0 0.00 0.42 0.42 95 1016.8
20260901153524 62 71 0.0 4.0 0.00 0.42 0.42 95 1016.8
20260901153027 62 140 0.0 5.0 0.00 0.42 0.42 95 1016.8
20260901152525 62 337 1.0 5.0 0.01 0.42 0.42 96 1016.8
20260901152023 62 42 0.0 2.0 0.02 0.42 0.42 96 1016.7
20260901151523 62 105 0.0 4.0 0.02 0.42 0.42 96 1016.7
20260901151022 62 55 1.0 4.0 0.03 0.42 0.42 95 1016.8
20260901150521 62 115 0.0 4.0 0.03 0.42 0.42 95 1016.9
20260901150021 62 142 1.0 5.0 0.04 0.42 0.42 95 1016.9
20260901145520 62 121 1.0 5.0 0.05 0.42 0.42 95 1017.0
20260901145019 62 316 0.0 2.0 0.05 0.42 0.42 95 1016.9
20260901144517 62 88 1.0 5.0 0.06 0.42 0.42 95 1016.9
20260901144016 62 37 0.0 5.0 0.07 0.42 0.42 95 1016.9
20260901143519 62 28 0.0 5.0 0.08 0.42 0.42 95 1016.7
20260901143015 62 346 0.0 6.0 0.08 0.42 0.42 95 1016.7
20260901142514 62 355 1.0 4.0 0.08 0.41 0.41 95 1016.8
20260901142014 62 19 1.0 2.0 0.08 0.40 0.40 95 1016.8
20260901141515 62 9 0.0 5.0 0.09 0.40 0.40 95 1016.8
20260901141018 62 82 0.0 5.0 0.10 0.39 0.39 95 1016.8
20260901140512 62 30 1.0 5.0 0.11 0.38 0.38 95 1016.8
20260901140012 62 32 0.0 2.0 0.12 0.38 0.38 95 1016.8
20260901135511 62 360 0.0 4.0 0.12 0.37 0.37 94 1016.7
20260901135012 62 17 1.0 5.0 0.13 0.37 0.37 94 1016.6
20260901134511 62 37 1.0 5.0 0.14 0.36 0.36 94 1016.7
20260901134007 62 350 1.0 2.0 0.16 0.35 0.35 94 1016.7
20260901133507 62 115 0.0 4.0 0.20 0.34 0.34 94 1016.8
20260901133006 62 91 1.0 4.0 0.22 0.33 0.33 94 1016.9
20260901132505 62 65 0.0 4.0 0.25 0.33 0.33 94 1016.9
20260901132005 62 111 0.0 2.0 0.26 0.32 0.32 94 1017.0
20260901131504 62 126 0.0 4.0 0.26 0.30 0.30 94 1017.1
20260901131006 62 155 1.0 4.0 0.26 0.28 0.28 93 1017.2
20260901130504 62 98 0.0 5.0 0.26 0.27 0.27 93 1017.3
20260901130002 62 17 1.0 9.0 0.26 0.26 0.26 93 1017.3
20260901125602 63 84 2.0 9.0 0.25 0.25 0.25 93 1017.2
20260901125200 63 61 4.0 9.0 0.24 0.24 0.24 93 1017.3
20260901124600 63 82 1.0 5.0 0.22 0.22 0.22 93 1017.4
20260901124057 63 36 1.0 4.0 0.19 0.19 0.19 92 1017.4
20260901123558 63 62 0.0 2.0 0.14 0.14 0.14 92 1017.3
20260901123055 63 84 0.0 2.0 0.11 0.11 0.11 92 1017.4
20260901122553 63 86 0.0 5.0 0.08 0.08 0.08 92 1017.3
20260901122056 64 57 1.0 5.0 0.06 0.06 0.06 91 1017.4
20260901121559 64 54 0.0 2.0 0.04 0.04 0.04 91 1017.5
20260901121052 64 28 0.0 2.0 0.02 0.02 0.02 91 1017.5
20260901120551 64 46 0.0 1.0 0.01 0.01 0.01 90 1017.3
20260901115549 64 57 0.0 1.0 0.00 0.00 0.00 90 1017.2
20260901115051 64 57 0.0 1.0 0.00 0.00 0.00 90 1017.2
20260901114548 64 57 0.0 1.0 0.00 0.00 0.00 90 1017.1
20260901114051 64 57 0.0 1.0 0.00 0.00 0.00 90 1017.0
20260901113547 64 119 0.0 1.0 0.00 0.00 0.00 90 1016.9
20260901113047 64 119 0.0 1.0 0.00 0.00 0.00 90 1017.0
20260901112547 64 90 0.0 1.0 0.00 0.00 0.00 90 1017.0
20260901112048 64 90 0.0 1.0 0.00 0.00 0.00 90 1017.0
20260901111554 64 90 0.0 0.0 0.00 0.00 0.00 90 1016.9
20260901111045 64 90 0.0 1.0 0.00 0.00 0.00 90 1016.9
20260901110545 64 90 0.0 2.0 0.00 0.00 0.00 90 1016.8
20260901110047 64 90 0.0 2.0 0.00 0.00 0.00 90 1016.9
20260901105545 64 90 0.0 2.0 0.00 0.00 0.00 90 1016.8
20260901105044 64 111 0.0 2.0 0.00 0.00 0.00 90 1016.8
20260901104545 65 49 0.0 2.0 0.00 0.00 0.00 90 1016.7
20260901104046 65 76 0.0 0.0 0.00 0.00 0.00 91 1016.6
20260901103542 65 76 0.0 0.0 0.00 0.00 0.00 90 1016.6
20260901103049 65 76 0.0 0.0 0.00 0.00 0.00 90 1016.5
20260901102542 64 76 0.0 0.0 0.00 0.00 0.00 90 1016.4
20260901102042 65 76 0.0 0.0 0.00 0.00 0.00 90 1016.4
20260901101542 65 76 0.0 0.0 0.00 0.00 0.00 90 1016.3
20260901101041 65 76 0.0 0.0 0.00 0.00 0.00 90 1016.3
20260901100542 65 76 0.0 0.0 0.00 0.00 0.00 90 1016.1
20260901100041 65 76 0.0 0.0 0.00 0.00 0.00 90 1016.1
20260901095540 64 76 0.0 0.0 0.00 0.00 0.00 90 1016.0
20260901095042 64 76 0.0 1.0 0.00 0.00 0.00 90 1016.0
20260901094541 64 76 0.0 1.0 0.00 0.00 0.00 90 1016.1
20260901094039 64 76 0.0 0.0 0.00 0.00 0.00 90 1016.0
20260901093539 64 76 0.0 0.0 0.00 0.00 0.00 90 1016.0
20260901093039 65 76 0.0 0.0 0.00 0.00 0.00 90 1016.0
20260901092539 65 76 0.0 1.0 0.00 0.00 0.00 90 1016.1
20260901092039 65 76 0.0 1.0 0.00 0.00 0.00 90 1016.1
20260901091540 65 76 0.0 1.0 0.00 0.00 0.00 90 1016.1
20260901091038 65 76 0.0 1.0 0.00 0.00 0.00 89 1016.0
20260901090538 65 76 0.0 1.0 0.00 0.00 0.00 89 1016.0